www.pogodaiklimat.ru

Погода и климат >> Архив погоды >> Пакистан >> Nawabshah


ПОГОДА в Nawabshah

  • Прогноз погоды в Nawabshah
  • Монитор погоды в Nawabshah
  • Климат города

АРХИВ ПОГОДЫ в Nawabshah

Время (UTC), дата Ветер
(напр.,м/с)
 
Видим.   Явления Облачность Т
(С)
Тd
(С)
f
(%)
Тe
(С)
Тes
(С)
Комфортность P
(гПа)
Po
(гПа)
Тmin
(С)
Tmax
(С)
R
(мм)
R24
(мм)
S
(см)
06 19.05 Ю 5 4000 м ясно +41.0 +20.7 31 +47 +57 опасность
перегрева
1001.9 998.6
09 19.05 Ю 5 4000 м мгла ясно +46.0 +20.0 23 +51 +61 опасность
перегрева
999.7 1000.0
12 19.05 Ю 5 4000 м мгла 4/0
[Ci fib]
+46.0 +17.9 20 +49 +51 опасность
перегрева
998.4 995.1 +47.5
15 19.05 ЮЗ 4 4000 м мгла 9/4 1050 м
[Sc]
+37.0 +21.0 40 +44 +44 опасность
перегрева
999.5 1000.0
18 19.05 Ю 2 4000 м мгла ясно +33.0 +21.3 50 +41 +41 опасность
перегрева
1000.9 997.6
21 19.05 Ю 3 4000 м мгла ясно +30.0 +21.1 59 +38 +38 очень
душно
999.5 1000.0
00 20.05 ЮВ 1 4000 м мгла ясно +28.5 +21.1 64 +36 +36 очень
душно
998.6 995.3
03 20.05 Ю 2 4000 м мгла 8/0
[Ac trans Ci fib]
+32.0 +22.6 58 +42 +46 опасность
перегрева
1001.5 998.2 +27.5
06 20.05 Ю 3 4000 м мгла 5/0
[Ac trans Ci fib]
+39.0 +22.7 39 +48 +60 опасность
перегрева
1003.1 999.8
09 20.05 Ю 4 4000 м мгла 6/0
[Ac trans Ci fib]
+44.5 +18.8 23 +48 +58 опасность
перегрева
1000.3 1000.0
12 20.05 Ю 2 4000 м мгла 5/0
[Ac trans Ci fib]
+46.0 +15.5 17 +47 +51 опасность
перегрева
998.5 995.2 +47.5
15 20.05 З 5 500 м пыльный позёмок 8/6 300 м
[Sc Ac trans]
+38.0 +17.5 30 +41 +41 опасность
перегрева
998.4 1000.0
18 20.05 ЮЗ 3 4000 м мгла 4/1 1050 м
[Sc Ac trans]
+35.0 +16.3 33 +38 +38 очень
душно
999.8 996.5
21 20.05 ЮВ 2 2000 м мгла ясно +32.0 +16.2 39 +35 +35 очень
душно
998.9 1000.0
00 21.05 ЮВ 3 2000 м мгла 3/0
[Ac trans]
+29.0 +18.2 52 +34 +34 очень
душно
998.9 995.6
03 21.05 ЮВ 5 4000 м мгла ясно +31.0 +20.6 54 +38 +41 очень
душно
1000.5 997.2 +27.0
06 21.05 Ю 2 4000 м мгла ясно +38.5 +23.8 43 +49 +68 опасность
перегрева
1000.9 997.6
09 21.05 штиль 0 4000 м мгла ясно +44.0 +15.7 20 +46 +71 опасность
перегрева
998.9 1000.0
12 21.05 ЮВ 4 4000 м мгла ясно +43.5 +13.6 18 +44 +47 опасность
перегрева
996.4 993.1 +44.5
15 21.05 ЮЗ 5 2000 м мгла 3/3 1000 м
[Sc]
+38.0 +16.4 28 +40 +40 очень
душно
998.3 998.0
18 21.05 ЮЗ 5 2000 м мгла ясно +34.5 +14.4 30 +36 +36 душно 1000.0 996.7
21 21.05 ЮЗ 2 2000 м мгла ясно +32.0 +14.1 34 +34 +34 душно 999.4 1000.0
00 22.05 штиль 0 2000 м мгла ясно +29.0 +13.1 38 +31 +31 жарко 998.8 995.5
03 22.05 ЮВ 3 4000 м мгла ясно +32.0 +20.0 49 +38 +43 очень
душно
1001.6 998.3 +28.1
06 22.05 Ю 7 4000 м ясно +36.0 +21.5 43 +44 +50 опасность
перегрева
1005.0 1001.7
09 22.05 ЮЗ 3 4000 м мгла ясно +42.0 +20.0 28 +38 +55 опасность
солнечного
удара
1002.7 1000.0
12 22.05 ЮЗ 5 4000 м мгла ясно +41.0 +18.8 28 +45 +47 опасность
перегрева
1001.1 997.8 +43.0
15 22.05 Ю 3 4000 м мгла 5/5 1000 м
[Sc]
+37.0 +21.0 40 +44 +44 опасность
перегрева
1003.0 1000.0
18 22.05 ЮЗ 2 4000 м пыльный позёмок 3/3 300 м
[Sc]
+34.0 +20.8 46 +41 +41 опасность
перегрева
1003.9 1000.6
21 22.05 Ю 2 4000 м мгла 3/3 300 м
[Sc]
+32.0 +20.0 49 +38 +38 очень
душно
1002.6 1000.0
00 23.05 ЮВ 3 4000 м мгла 3/3 900 м
[Sc]
+28.5 +18.5 55 +34 +34 очень
душно
1001.2 997.9
03 23.05 ЮВ 3 4000 м мгла ясно +32.0 +20.0 49 +38 +43 очень
душно
1004.0 1000.7 +28.0
06 23.05 Ю 5 4000 м ясно +40.0 +17.3 27 +43 +53 опасность
перегрева
1005.9 1002.6
09 23.05 ЮЗ 2 4000 м ясно +45.0 +16.2 19 +47 +67 опасность
перегрева
1003.1 1000.0
12 23.05 ЮЗ 2 4000 м мгла ясно +44.0 +16.9 21 +46 +51 опасность
перегрева
1001.2 997.9 +46.5
15 23.05 ЮВ 2 4000 м мгла ясно +40.0 +18.3 28 +43 +43 опасность
перегрева
1002.0 1002.0
18 23.05 Ю 2 2000 м мгла ясно +35.0 +20.2 42 +41 +41 опасность
перегрева
1003.0 999.7
21 23.05 ЮЗ 2 2000 м мгла ясно +31.0 +19.7 51 +37 +37 очень
душно
1001.4 1000.0
00 24.05 Ю 3 4000 м мгла ясно +28.0 +19.6 60 +34 +34 очень
душно
1000.4 997.1
03 24.05 С 1 500 м пыль ясно +32.0 +20.0 49 +38 +45 очень
душно
1002.7 999.4 +28.5
06 24.05 ЮВ 2 500 м пыль ?/? +38.0 +18.5 32 +42 +42 опасность
перегрева
1004.7 1001.4
09 24.05 ЮЗ 3 2000 м мгла ясно +44.0 +15.7 20 +46 +61 опасность
перегрева
1001.7 1002.0
12 24.05 ЮЗ 3 4000 м мгла ясно +45.0 +15.0 18 +46 +50 опасность
перегрева
999.5 996.2 +45.5
15 24.05 ЮВ 3 4000 м мгла ясно +39.0 +19.9 33 +44 +44 опасность
перегрева
999.9 1000.0
18 24.05 ЮВ 2 4000 м мгла ясно +34.0 +21.6 48 +42 +42 опасность
перегрева
1001.0 997.7
21 24.05 ЮВ 2 4000 м мгла ясно +31.0 +21.4 57 +39 +39 очень
душно
999.7 1000.0
00 25.05 ЮВ 2 4000 м мгла ясно +29.0 +20.8 61 +36 +36 очень
душно
998.7 995.4
03 25.05 ЮВ 2 4000 м мгла ясно +31.0 +22.3 60 +40 +46 очень
душно
1000.3 997.0 +28.1
06 25.05 Ю 4 4000 м ясно +39.0 +25.2 46 +52 +65 опасность
перегрева
1001.3 998.0
09 25.05 ЮВ 2 4000 м ясно +44.5 +20.8 26 +50 +69 опасность
перегрева
998.6 1000.0
12 25.05 ЮВ 2 4000 м ясно +45.0 +20.6 25 +50 +55 опасность
перегрева
996.9 993.9 +45.1
15 25.05 ЮВ 2 4000 м ясно +38.0 +24.0 45 +49 +49 опасность
перегрева
998.0 995.0
18 25.05 ЮВ 2 4000 м мгла ясно +34.0 +22.5 51 +43 +43 опасность
перегрева
999.8 996.5
21 25.05 ЮВ 3 4000 м мгла ясно +30.0 +22.8 65 +40 +40 очень
душно
998.3 998.0
00 26.05 ЮВ 1 4000 м мгла ясно +28.0 +22.1 70 +36 +36 очень
душно
997.8 994.5
03 26.05 ЮВ 2 4000 м ясно +32.5 +23.2 58 +43 +48 опасность
перегрева
999.2 995.9 +27.5

 

Местоположение метеостанции Nawabshah (Пакистан): широта 26.25 долгота 68.37 высота над уровнем моря 38 м.

В архиве по умолчанию представлена погода в Nawabshah за последнюю неделю. Архивные данные за месяц целиком и за предыдущие месяцы, начиная с января 2011 года, Вы можете получить, выбрав интересующий диапазон дат из раскрывающегося списка и нажав кнопку "Ввод!".

Внимание! Время в таблицах - всемирное. Для получения местного времени необходимо прибавить поправку, которая в Nawabshah равна 5 ч.

Смотрите также архив погоды в соседних городах и на ближайших метеорологических станциях:

Погода в Pad Idan (Пакистан) (71 км)
Погода в Hyderabad Airport (Пакистан) (97 км)
Погода в Chhor (Пакистан) (163 км)
Погода в Rohri (Пакистан) (166 км)
Погода в Badin (Пакистан) (188 км)
Погода в Karachi (Пакистан) (195 км)
Погода в Jacobabad (Пакистан) (228 км)
Погода в Khuzdar (Пакистан) (246 км)
Погода в Jaisalmer (Rajasthan, Индия) (264 км)
Погода в Barmer (Rajasthan, Индия) (306 км)

Пояснения к столбцам:

Ветер - указаны скорость ветра в м/с - средняя за 10 мин, порывы в срок и между сроками (в фигурных скобках) и направление, откуда дует ветер: С - северный, СВ - северо-восточный, В - восточный, ЮВ - юго-восточный, Ю - южный, ЮЗ - юго-западный, З - западный, СЗ - северо-западный.
Видимость - горизонтальная дальность видимости в метрах или километрах. При видимости от 1 до 10 км при отсутствии осадков обычно наблюдается дымка, при ухудшении видимости до 1 км и менее - туман. В сухую погоду видимость может ухудшаться дымом, пылью или мглою.
Явления - указаны атмосферные явления, наблюдавшиеся в срок или в последний час перед сроком; фигурными скобками обозначены явления, наблюдавшиеся между сроками (за 1-3 часа до срока); квадратными скобками обозначены град или гололедные отложения с указанием их диаметра в мм.
Облачность - указаны через наклонную черту общая и нижняя облачность в баллах и высота нижней границы облаков в метрах; квадратными скобками обозначены формы облаков: Ci - перистые, Cs - перисто-слоистые, Cc - перисто-кучевые, Ac - высококучевые, As - высокослоистые, Sc - слоисто-кучевые, Ns - слоисто-дождевые, Cu - кучевые, Cb - кучево-дождевые. Подробнее классификацию облаков см. в Атласе облаков (PDF).
T - Температура воздуха - температура, измеренная на высоте 2 м над землей.
Td - Температура точки росы - температура, при понижении до которой содержащийся в воздухе водяной пар достигнет насыщения.
f - Относительная влажность воздуха - влажноcть воздуха, измеренная на высоте 2 м над землей.
Te - Эффективная температура - температура, которую ощущает одетый по сезону человек в тени. Характеристика душности погоды. При расчете учитывается влияние влажности воздуха и скорости ветра на теплоощущения человека.
Tes - Эффективная температура на солнце - температура, которую ощущает человек, с поправкой на солнечный нагрев. Характеристика знойности погоды. Зависит от высоты солнца над горизонтом, облачности и скорости ветра. Ночью, в пасмурную погоду, а также при ветре 12 м/с и более поправка равна нулю.
P - Атмосферное давление - приведенное к уровню моря атмосферное давление.
Po - Атмосферное давление - измеренное на уровне метеостанции атмосферное давление.
Tmin - Минимальная температура - минимум температуры воздуха на высоте 2 м над землей.
Tmax - Максимальная температура - максимум температуры воздуха на высоте 2 м над землей.
R - Количество осадков - Количество выпавших осадков за период времени, мм. При наведении курсора мыши на число - период времени, за который выпало указанное количество осадков.
R24 - Количество осадков - Количество выпавших осадков за 24 часа, мм.
S - Снежный покров - Высота снежного покрова, см. При наведении курсора мыши на число - состояние снежного покрова и степень покрытия местности в баллах.